• In Netherlands
  • List of Countries
  • For 7 days
  • Water Temperature
  • Satellite Maps
  • Weather Map
  • Weather Widgets
  • user-avatar
    Login

    Hourly Weather Bremen

    Today, 16 August, Thursday

    Time Temperature Precipitation Wind Pressure Humidity
    00:00 +19°C° 0 mm 2 mps 763 mmHg 83%
    01:00 +19°C° 0 mm 2 mps 762 mmHg 85%
    02:00 +18°C° 0 mm 2 mps 762 mmHg 87%
    03:00 +17°C° 0 mm 2 mps 762 mmHg 89%
    04:00 +17°C° 0 mm 2 mps 762 mmHg 91%
    05:00 +18°C° 0 mm 3 mps 762 mmHg 88%
    06:00 +18°C° 0 mm 3 mps 762 mmHg 84%
    07:00 +19°C° 0 mm 3 mps 761 mmHg 81%
    08:00 +21°C° 0 mm 4 mps 761 mmHg 74%
    09:00 +23°C° 0 mm 4 mps 761 mmHg 66%
    10:00 +25°C° 0 mm 5 mps 761 mmHg 59%
    11:00 +26°C° 0 mm 5 mps 760 mmHg 55%
    12:00 +28°C° 0 mm 5 mps 760 mmHg 51%
    13:00 +29°C° 0 mm 5 mps 760 mmHg 47%
    14:00 +29°C° 0 mm 4 mps 759 mmHg 45%
    15:00 +29°C° 0 mm 4 mps 759 mmHg 44%
    16:00 +30°C° 0 mm 4 mps 759 mmHg 43%
    17:00 +28°C° 0 mm 3 mps 759 mmHg 48%
    18:00 +27°C° 0 mm 3 mps 759 mmHg 53%
    19:00 +26°C° 0 mm 2 mps 759 mmHg 59%
    20:00 +24°C° 0 mm 2 mps 759 mmHg 65%
    21:00 +22°C° 0 mm 1 mps 759 mmHg 71%
    22:00 +21°C° 0 mm 1 mps 759 mmHg 77%
    23:00 +20°C° 0 mm 1 mps 759 mmHg 80%

    Tomorrow, 17 August, Friday

    Time Temperature Precipitation Wind Pressure Humidity
    00:00 +20°C° 0 mm 1 mps 759 mmHg 84%
    01:00 +19°C° 0 mm 1 mps 760 mmHg 87%
    02:00 +18°C° 0.2 mm 2 mps 760 mmHg 89%
    03:00 +17°C° 0.2 mm 2 mps 760 mmHg 91%
    04:00 +17°C° 0.2 mm 2 mps 760 mmHg 93%
    05:00 +17°C° 0.5 mm 2 mps 760 mmHg 93%
    06:00 +18°C° 0.5 mm 2 mps 760 mmHg 92%
    07:00 +18°C° 0.5 mm 2 mps 760 mmHg 91%
    08:00 +18°C° 0.4 mm 2 mps 760 mmHg 89%
    09:00 +19°C° 0.4 mm 2 mps 761 mmHg 86%
    10:00 +20°C° 0.4 mm 2 mps 761 mmHg 83%
    11:00 +20°C° 0.3 mm 3 mps 761 mmHg 81%
    12:00 +20°C° 0.3 mm 3 mps 761 mmHg 78%
    13:00 +21°C° 0.3 mm 3 mps 761 mmHg 75%
    14:00 +21°C° 0 mm 3 mps 761 mmHg 70%
    15:00 +22°C° 0 mm 3 mps 761 mmHg 66%
    16:00 +24°C° 0 mm 3 mps 761 mmHg 61%
    17:00 +22°C° 0 mm 3 mps 762 mmHg 64%
    18:00 +21°C° 0 mm 3 mps 762 mmHg 66%
    19:00 +20°C° 0 mm 2 mps 762 mmHg 69%
    20:00 +18°C° 0 mm 2 mps 762 mmHg 75%
    21:00 +17°C° 0 mm 2 mps 763 mmHg 80%
    22:00 +15°C° 0 mm 2 mps 763 mmHg 86%
    23:00 +15°C° 0 mm 1 mps 763 mmHg 87%

    Day after tomorrow, 18 August, Saturday

    Time Temperature Precipitation Wind Pressure Humidity
    00:00 +14°C° 0 mm 1 mps 763 mmHg 89%
    01:00 +14°C° 0 mm 1 mps 764 mmHg 90%
    02:00 +14°C° 0 mm 1 mps 764 mmHg 91%
    03:00 +13°C° 0 mm 1 mps 764 mmHg 91%
    04:00 +13°C° 0 mm 1 mps 764 mmHg 92%
    05:00 +14°C° 0 mm 2 mps 764 mmHg 89%
    06:00 +15°C° 0 mm 2 mps 764 mmHg 86%
    07:00 +16°C° 0 mm 2 mps 764 mmHg 83%
    08:00 +18°C° 0 mm 3 mps 764 mmHg 73%
    09:00 +20°C° 0 mm 3 mps 765 mmHg 64%
    10:00 +22°C° 0 mm 4 mps 765 mmHg 54%
    11:00 +23°C° 0 mm 4 mps 764 mmHg 51%
    12:00 +25°C° 0 mm 4 mps 764 mmHg 48%
    13:00 +26°C° 0 mm 4 mps 764 mmHg 45%
    14:00 +26°C° 0 mm 4 mps 764 mmHg 47%
    15:00 +25°C° 0 mm 4 mps 764 mmHg 48%
    16:00 +25°C° 0 mm 4 mps 764 mmHg 50%
    17:00 +23°C° 0 mm 4 mps 764 mmHg 55%
    18:00 +22°C° 0 mm 3 mps 764 mmHg 60%
    19:00 +21°C° 0 mm 2 mps 764 mmHg 65%
    20:00 +20°C° 0 mm 2 mps 764 mmHg 70%
    21:00 +19°C° 0 mm 2 mps 765 mmHg 75%
    22:00 +18°C° 0 mm 2 mps 765 mmHg 80%
    23:00 +17°C° 0 mm 2 mps 765 mmHg 83%

    19 August, Sunday

    Time Temperature Precipitation Wind Pressure Humidity
    00:00 +17°C° 0 mm 2 mps 765 mmHg 86%
    01:00 +16°C° 0 mm 2 mps 765 mmHg 88%
    02:00 +16°C° 0 mm 2 mps 765 mmHg 90%
    03:00 +16°C° 0 mm 2 mps 765 mmHg 91%
    04:00 +15°C° 0 mm 2 mps 765 mmHg 92%
    05:00 +16°C° 0 mm 2 mps 765 mmHg 90%
    06:00 +17°C° 0 mm 2 mps 766 mmHg 87%
    07:00 +17°C° 0 mm 2 mps 766 mmHg 84%
    08:00 +19°C° 0 mm 2 mps 766 mmHg 77%
    09:00 +21°C° 0 mm 2 mps 766 mmHg 69%
    10:00 +24°C° 0 mm 3 mps 766 mmHg 62%
    11:00 +25°C° 0 mm 3 mps 765 mmHg 58%
    12:00 +26°C° 0 mm 3 mps 765 mmHg 54%
    13:00 +27°C° 0 mm 3 mps 765 mmHg 50%
    14:00 +27°C° 0 mm 3 mps 765 mmHg 49%
    15:00 +28°C° 0 mm 3 mps 764 mmHg 49%
    16:00 +28°C° 0 mm 3 mps 764 mmHg 48%
    17:00 +27°C° 0 mm 3 mps 764 mmHg 53%
    18:00 +26°C° 0 mm 2 mps 764 mmHg 57%
    19:00 +25°C° 0 mm 2 mps 763 mmHg 62%
    20:00 +24°C° 0 mm 2 mps 763 mmHg 65%
    21:00 +23°C° 0 mm 2 mps 763 mmHg 68%
    22:00 +21°C° 0 mm 2 mps 764 mmHg 71%
    23:00 +20°C° 0 mm 2 mps 763 mmHg 74%

    20 August, Monday

    Time Temperature Precipitation Wind Pressure Humidity
    00:00 +19°C° 0 mm 2 mps 763 mmHg 77%
    01:00 +19°C° 0 mm 2 mps 763 mmHg 80%
    02:00 +18°C° 0 mm 3 mps 763 mmHg 83%
    03:00 +18°C° 0 mm 3 mps 763 mmHg 85%
    04:00 +18°C° 0 mm 3 mps 762 mmHg 87%
    05:00 +18°C° 0 mm 4 mps 762 mmHg 86%
    06:00 +19°C° 0 mm 4 mps 763 mmHg 84%
    07:00 +19°C° 0 mm 5 mps 763 mmHg 83%
    08:00 +20°C° 0 mm 5 mps 763 mmHg 80%
    09:00 +22°C° 0 mm 5 mps 763 mmHg 76%
    10:00 +23°C° 0 mm 5 mps 763 mmHg 73%
    11:00 +23°C° 0.1 mm 5 mps 763 mmHg 72%
    12:00 +25°C° 0.1 mm 5 mps 763 mmHg 71%
    13:00 +25°C° 0.1 mm 5 mps 763 mmHg 70%
    14:00 +25°C° 0.1 mm 5 mps 763 mmHg 69%
    15:00 +25°C° 0.1 mm 5 mps 763 mmHg 68%
    16:00 +25°C° 0.1 mm 5 mps 763 mmHg 67%
    17:00 +25°C° 0.1 mm 4 mps 763 mmHg 71%
    18:00 +24°C° 0.1 mm 3 mps 763 mmHg 74%
    19:00 +22°C° 0.1 mm 3 mps 763 mmHg 78%
    20:00 +21°C° 0 mm 2 mps 763 mmHg 82%
    21:00 +20°C° 0 mm 2 mps 763 mmHg 86%
    22:00 +19°C° 0 mm 2 mps 763 mmHg 90%
    23:00 +19°C° 0 mm 2 mps 763 mmHg 91%

    21 August, Tuesday

    Time Temperature Precipitation Wind Pressure Humidity
    00:00 +19°C° 0 mm 2 mps 763 mmHg 92%
    01:00 +19°C° 0 mm 2 mps 763 mmHg 92%
    02:00 +18°C° 0 mm 2 mps 763 mmHg 93%
    03:00 +18°C° 0 mm 2 mps 763 mmHg 93%
    04:00 +18°C° 0 mm 2 mps 763 mmHg 93%
    05:00 +18°C° 0 mm 2 mps 763 mmHg 91%
    06:00 +19°C° 0 mm 2 mps 763 mmHg 90%
    07:00 +19°C° 0 mm 2 mps 763 mmHg 88%
    08:00 +20°C° 0.1 mm 2 mps 763 mmHg 84%
    09:00 +21°C° 0.1 mm 2 mps 763 mmHg 80%
    10:00 +23°C° 0.1 mm 2 mps 763 mmHg 76%
    11:00 +23°C° 0.1 mm 2 mps 763 mmHg 74%
    12:00 +22°C° 0.1 mm 3 mps 763 mmHg 73%
    13:00 +24°C° 0.1 mm 3 mps 762 mmHg 71%
    14:00 +24°C° 0.1 mm 3 mps 762 mmHg 69%
    15:00 +24°C° 0.1 mm 3 mps 762 mmHg 68%
    16:00 +24°C° 0.1 mm 3 mps 762 mmHg 66%
    17:00 +23°C° 0 mm 2 mps 762 mmHg 70%
    18:00 +23°C° 0 mm 2 mps 762 mmHg 73%
    19:00 +22°C° 0 mm 1 mps 762 mmHg 77%
    20:00 +21°C° 0 mm 1 mps 762 mmHg 79%
    21:00 +21°C° 0 mm 1 mps 762 mmHg 81%
    22:00 +18°C° 0 mm 0 mps 762 mmHg 83%
    23:00 +20°C° 0 mm 1 mps 762 mmHg 83%
    Show more